Dewpoint
71 72 73 75 75 71 68 67 67 66 65 63 64 67 66 72 74 73 73 73 72 72 72 71 71 72 71 72 71 71 70 68 65 66 69 68 66 66 68 68 70 71 71
70 72 73 74 74 73 67 67 67 66 66 65 65 65 66 73 74 74 73 74 72 71 72 71 71 73 72 71 71 69 69 69 67 65 67 68 67 66 65 68 70 72 70
70 71 71 73 73 72 70 68 67 66 67 66 64 65 71 74 74 73 73 72 72 72 72 71 72 72 71 71 71 70 70 71 68 67 66 68 69 69 69 69 69 69 72
69 70 70 72 72 71 71 72 70 70 70 71 74 74 74 74 73 73 72 73 72 74 73 72 71 71 70 70 70 70 69 68 68 67 67 66 67 68 67 66 66 68 68
69 70 71 72 72 72 73 72 75 74 74 75 74 75 74 75 73 72 74 73 72 71 72 72 72 72 70 69 68 67 66 66 68 67 66 65 65 65 66 66 66 66 67
69 70 74 73 73 73 75 75 74 75 74 74 74 75 74 75 71 73 74 72 72 71 69 69 70 70 70 70 69 68 67 65 64 66 66 65 65 66 66 66 65 65 63
68 69 65 74 74 74 75 76 74 74 75 74 75 74 72 70 68 70 73 71 71 69 69 69 70 67 65 66 67 68 68 67 67 65 64 64 64 66 67 66 66 65 65
70 69 68 74 74 76 74 75 76 75 74 74 74 74 70 68 67 68 70 71 70 70 69 68 68 62 62 62 63 66 68 69 68 67 65 66 68 68 67 67 66 66 66
70 70 74 74 74 76 75 75 77 75 75 74 75 72 68 65 63 63 68 71 70 70 65 64 65 61 62 62 63 64 65 66 66 67 66 66 66 66 66 65 64 63 63
70 69 76 76 75 75 76 76 77 75 75 75 74 71 67 63 59 59 64 68 69 68 61 59 62 60 59 59 60 60 59 60 62 64 66 67 67 67 66 65 65 63 63
71 74 76 76 76 77 77 77 77 76 75 74 72 70 68 63 56 58 62 64 65 68 63 59 57 59 58 57 59 58 58 59 61 62 65 64 63 65 67 68 67 66 64
73 74 76 76 76 76 77 78 76 75 74 73 71 69 64 59 56 56 57 57 61 60 60 57 56 55 56 57 57 58 59 61 60 60 60 59 60 61 61 63 63 64 66
74 75 76 75 75 77 77 76 75 74 73 72 71 68 64 60 55 56 55 56 59 58 56 57 56 55 55 57 57 58 59 58 58 57 57 58 58 60 59 58 60 61 61
73 74 75 75 74 77 77 76 74 73 72 71 70 67 64 59 55 55 55 55 59 57 58 56 57 58 57 59 58 57 57 56 55 56 55 56 56 57 54 56 57 57 58
73 74 74 74 74 77 65 69 73 73 71 71 69 67 63 59 57 56 57 58 57 58 58 58 56 56 57 56 55 54 54 54 54 54 53 53 53 54 51 55 55 54 53
72 73 74 74 77 66 61 56 50 49 50 52 59 64 61 58 53 50 50 49 50 51 56 59 56 52 52 52 52 53 53 53 52 52 53 52 51 51 51 52 52 51 50
73 75 76 75 68 65 63 63 59 55 51 52 48 49 52 50 46 45 46 47 48 52 55 54 51 51 52 52 52 51 52 52 51 51 52 50 50 50 50 49 48 48 48
76 68 76 73 69 66 65 63 63 62 61 56 50 51 51 50 48 45 47 50 50 50 53 50 51 52 51 50 51 50 51 52 51 49 50 48 47 45 45 44 44 42 42
74 75 74 72 69 66 65 63 63 62 60 56 52 50 48 46 47 47 49 53 51 51 51 50 51 50 50 50 51 50 49 47 46 47 46 42 43 41 40 40 40 41 42
69 65 67 68 69 68 67 65 66 63 57 56 54 52 50 50 50 50 51 54 55 53 49 49 52 51 51 51 49 50 47 44 41 43 39 39 40 39 39 40 38 38 40
68 67 66 67 67 67 67 67 67 63 60 59 59 56 52 52 50 51 52 55 55 50 50 50 50 50 50 50 49 44 42 42 41 36 38 37 36 36 38 37 37 40 39
68 67 67 66 66 66 66 67 66 64 60 57 56 52 49 52 52 53 53 54 51 50 51 51 51 50 50 48 45 44 44 38 36 36 36 34 34 36 35 34 38 39 40
66 66 66 66 67 64 66 67 66 66 66 62 59 53 49 50 54 55 53 50 51 51 50 48 47 47 43 43 45 43 36 34 35 36 34 34 35 35 34 37 38 40 39
65 65 63 63 66 66 66 66 66 62 65 65 60 56 51 51 54 52 49 50 49 49 49 48 47 42 40 41 38 35 35 36 35 32 33 35 34 34 35 37 39 38 38
65 66 63 61 62 65 65 66 66 66 65 61 56 55 53 53 55 49 48 47 47 47 45 43 42 41 38 33 29 26 30 31 29 31 33 32 32 34 37 39 37 37 35
67 66 65 62 61 64 65 64 64 64 64 57 56 55 55 55 53 48 46 44 44 43 43 43 42 41 37 33 29 29 29 31 29 29 27 30 34 37 39 37 34 34 34
Lifted_Index
-7 -7 -8 -9 -8 -7 -5 -4 -3 -2 -1 -1 -2 -3 -4 -6 -7 -7 -7 -7 -6 -6 -6 -6 -6 -5 -5 -4 -4 -4 -3 -3 -2 -2 -2 -2 -1 -1 -1 -1 -2 -2 -2
-7 -7 -8 -9 -9 -7 -6 -5 -4 -3 -2 -2 -3 -4 -5 -6 -7 -7 -7 -7 -7 -6 -6 -6 -5 -5 -5 -4 -4 -4 -3 -3 -2 -2 -2 -2 -2 -1 -1 -1 -2 -2 -2
-7 -7 -8 -8 -8 -7 -6 -5 -4 -4 -4 -4 -5 -6 -7 -7 -7 -7 -7 -7 -7 -7 -6 -5 -5 -5 -4 -4 -3 -3 -3 -3 -2 -2 -2 -2 -2 -2 -2 -2 -2 -2 -2
-7 -7 -7 -8 -7 -7 -6 -6 -5 -5 -5 -6 -6 -7 -7 -8 -7 -7 -7 -7 -7 -6 -6 -5 -4 -4 -3 -3 -3 -2 -2 -1 -2 -2 -2 -2 -2 -2 -2 -2 -1 -2 -2
-7 -7 -7 -7 -7 -6 -6 -6 -7 -7 -7 -7 -8 -8 -8 -8 -8 -7 -7 -7 -6 -5 -4 -4 -3 -3 -3 -2 -2 -1 -1 -1 -1 -1 -2 -2 -2 -2 -1 -1 -1 -1 -1
-7 -7 -7 -7 -7 -7 -7 -7 -8 -8 -8 -8 -8 -8 -8 -8 -7 -7 -7 -6 -5 -4 -3 -3 -2 -2 -2 -2 -1 -1 -1 -1 -1 -1 -1 -1 -1 -1 -1 -1 -1 -1 -1
-7 -7 -7 -8 -8 -8 -8 -8 -8 -9 -9 -9 -9 -8 -8 -7 -7 -7 -6 -5 -4 -3 -2 -2 -1 -0 0 1 0 -0 -1 -1 -1 -1 -1 -1 -1 -1 -1 -1 -1 -1 -1
-7 -7 -7 -8 -9 -9 -9 -9 -9 -9 -9 -9 -9 -8 -8 -6 -5 -5 -5 -4 -3 -3 -2 -1 -0 1 3 4 3 2 0 -1 -1 -1 -1 -1 -1 -1 -1 -1 -0 -0 -0
-7 -8 -9 -10 -10 -10 -10 -10 -10 -9 -9 -8 -8 -8 -7 -5 -3 -3 -3 -4 -3 -3 -2 -1 1 2 4 5 5 3 2 1 0 -0 -0 -0 -1 -1 -0 -0 -0 -0 -0
-7 -8 -10 -10 -10 -11 -11 -11 -11 -10 -9 -8 -8 -7 -6 -5 -2 -1 -2 -3 -3 -3 -2 -0 1 3 5 6 6 6 5 4 2 1 1 1 1 1 0 0 0 0 0
-8 -9 -10 -10 -11 -11 -11 -11 -11 -10 -9 -8 -8 -7 -6 -4 -2 -1 -1 -1 -1 -1 -0 1 3 5 7 7 8 8 7 5 4 3 2 2 2 2 2 1 1 1 1
-9 -9 -10 -10 -11 -11 -11 -11 -11 -10 -9 -8 -7 -7 -6 -3 -1 -0 -1 -0 0 1 2 4 6 7 8 8 8 9 8 6 5 5 4 4 4 3 3 3 3 2 2
-9 -10 -10 -10 -10 -11 -11 -11 -10 -9 -9 -8 -7 -6 -5 -3 -1 -1 -1 -0 1 2 4 6 7 8 8 8 9 9 9 8 7 7 6 6 6 5 5 5 4 4 3
-9 -10 -10 -10 -10 -11 -12 -11 -10 -9 -9 -8 -7 -6 -5 -3 -1 -1 -1 -1 1 3 5 7 7 8 8 9 9 10 10 10 9 9 9 9 8 8 7 7 6 6 6
-9 -10 -10 -10 -11 -11 -11 -11 -10 -10 -9 -8 -7 -6 -5 -2 -1 -1 -1 -1 1 4 6 6 7 8 9 9 10 10 11 11 11 11 11 11 10 10 9 9 8 8 8
-9 -10 -10 -10 -11 -11 -11 -11 -10 -10 -9 -8 -7 -6 -5 -3 -2 -2 -1 -1 2 4 6 6 7 8 9 10 10 11 11 12 12 12 12 12 12 11 11 10 10 10 10
-10 -10 -11 -11 -11 -11 -11 -10 -9 -9 -8 -7 -6 -6 -5 -4 -3 -3 -2 -1 2 5 6 7 7 9 10 10 11 11 12 12 13 13 13 13 13 13 12 12 12 12 12
-10 -11 -11 -10 -10 -10 -9 -8 -7 -6 -6 -6 -5 -5 -5 -4 -3 -3 -2 -1 1 5 7 8 9 10 10 11 11 12 12 13 13 14 14 14 14 14 14 14 14 14 14
-10 -11 -10 -10 -9 -9 -8 -7 -5 -5 -4 -5 -4 -4 -4 -3 -3 -2 -1 -0 2 5 7 9 10 10 11 11 11 12 13 13 14 14 15 15 16 16 16 16 15 15 15
-10 -10 -10 -9 -9 -7 -6 -5 -4 -4 -3 -3 -3 -3 -3 -2 -1 -1 -0 1 3 6 8 9 10 11 11 11 12 12 13 14 15 15 16 16 17 17 17 17 16 15 15
-8 -8 -8 -8 -7 -6 -4 -3 -2 -2 -2 -2 -2 -2 -1 -1 -0 0 1 2 5 8 9 10 11 11 11 11 12 13 13 14 15 16 17 18 18 18 18 17 16 15 15
-7 -6 -6 -6 -5 -4 -3 -1 -1 -1 -1 -0 -0 0 0 0 0 0 1 4 7 9 10 11 11 12 12 12 12 13 14 15 16 16 18 19 19 19 19 18 17 16 15
-5 -4 -4 -4 -4 -3 -2 -1 -0 -0 0 1 1 1 1 1 1 0 2 4 7 9 10 11 12 12 12 12 13 14 15 16 16 18 19 19 19 19 19 18 17 16 15
-3 -3 -2 -3 -3 -3 -3 -2 -2 -1 -1 -0 0 1 1 1 1 1 3 4 6 8 10 11 12 13 13 13 14 15 16 17 18 19 20 20 20 20 19 18 17 16 16
-3 -3 -3 -2 -3 -3 -3 -3 -3 -2 -2 -2 -1 -1 0 1 1 2 4 5 6 8 9 11 13 13 14 14 15 17 17 18 19 20 21 21 20 19 18 17 17 17 17
-3 -3 -3 -2 -3 -3 -3 -3 -3 -3 -3 -3 -2 -2 -1 0 1 2 4 5 7 8 10 12 13 14 15 15 16 17 18 19 20 21 21 21 20 19 18 17 17 17 17